Wind_Speed
15 14 14 13 13 14 15 15 15 14 14 14 14 14 14 14 13 14 14 14 14 14 14 13 14 14 14 14 14 15 15 15 15 15 15 15 16 16 17 17 17 17 18 18
17 16 16 16 15 14 15 16 17 16 15 15 14 14 16 15 15 14 14 14 14 14 14 14 14 14 15 15 15 16 16 16 16 16 16 16 16 17 17 17 18 18 18 19
17 17 17 17 15 16 16 17 18 18 17 16 16 16 16 17 16 16 15 14 14 13 13 14 14 15 15 16 16 16 16 17 17 17 17 17 17 17 17 18 18 19 19 20
17 17 19 16 15 17 18 18 18 19 18 17 17 17 17 17 17 16 15 15 14 13 14 14 14 14 14 15 16 16 16 16 17 17 18 18 18 18 18 18 18 19 19 19
19 19 20 18 16 17 18 18 18 19 19 19 18 18 18 18 17 17 16 15 15 15 15 15 15 15 15 16 16 17 17 16 16 17 18 18 19 18 18 19 19 19 20 20
20 20 21 19 18 18 19 19 18 19 19 19 18 19 18 17 17 16 16 16 16 16 17 16 16 16 17 17 17 17 17 17 17 17 18 19 19 19 19 19 20 21 21 21
22 22 23 20 20 19 21 20 18 19 19 19 18 19 18 18 17 17 16 16 16 16 17 17 17 17 18 18 17 17 17 17 18 18 18 19 19 19 19 20 21 21 22 22
22 23 23 21 21 21 22 21 20 20 19 19 19 19 19 19 18 17 17 17 17 16 17 18 18 19 19 19 19 19 19 19 19 19 20 20 20 21 21 21 22 23 23 24
23 24 22 22 22 23 23 22 22 22 21 20 19 20 20 20 19 18 18 18 18 18 18 18 19 19 19 19 19 19 20 20 20 20 21 21 22 22 22 23 23 24 24 25
25 25 24 24 23 23 24 24 23 23 22 22 21 20 20 21 21 19 19 19 19 20 20 20 20 20 20 21 21 21 21 21 21 21 22 22 23 23 24 24 25 25 25 26
28 26 26 26 26 25 26 25 24 24 23 23 22 21 21 22 22 21 21 21 21 21 22 22 22 22 22 22 22 22 22 23 23 23 23 24 25 25 25 25 26 26 27 28
28 27 28 27 27 27 27 26 25 24 23 23 23 22 22 22 23 23 23 22 22 23 23 23 23 23 23 23 23 23 24 24 24 24 24 25 27 27 28 28 28 29 30 30
29 29 29 28 28 29 29 27 26 24 24 24 24 23 23 23 24 24 23 23 24 24 24 24 24 24 24 24 25 25 25 25 26 27 27 27 29 29 29 30 30 31 31 32
29 29 29 28 28 29 29 28 26 25 25 24 24 24 23 23 24 24 23 23 24 24 25 25 25 25 25 25 26 26 26 27 27 28 28 29 29 30 31 31 31 32 32 33
29 29 29 28 28 28 29 28 27 26 26 25 25 25 24 24 24 24 24 24 24 24 25 25 25 25 26 27 27 28 28 28 28 29 29 30 31 31 31 32 32 32 33 34
30 30 30 29 28 28 28 28 27 26 26 26 26 26 26 25 25 24 24 25 25 25 25 26 26 26 27 27 28 29 29 29 29 30 31 31 32 32 32 32 32 33 34 34
31 31 31 30 29 29 29 28 28 27 26 26 26 27 27 26 26 25 26 26 27 26 26 27 27 28 29 29 29 30 29 29 30 30 31 32 32 32 33 34 34 34 35 35
32 31 31 30 29 29 30 29 28 27 26 26 26 27 27 27 27 27 27 27 27 27 28 28 29 29 30 29 30 30 29 30 30 31 32 32 32 33 33 33 34 34 34 35
32 32 32 32 31 30 30 30 29 29 28 28 28 28 28 28 28 28 28 29 28 28 28 29 29 30 30 29 29 29 30 31 31 32 33 33 32 33 33 33 34 35 35 35
33 33 33 32 31 30 30 30 29 30 29 29 29 29 29 29 28 28 28 29 29 29 29 29 30 30 30 30 30 30 31 31 32 32 33 33 32 32 33 33 34 35 35 36
34 33 33 32 31 30 30 29 29 29 29 30 30 30 30 30 29 29 29 30 29 29 29 29 29 30 30 30 30 31 31 32 32 32 32 32 33 33 33 34 35 35 36 37
32 32 32 31 31 31 30 31 30 30 29 29 30 31 31 31 30 30 30 30 30 30 30 30 30 30 30 31 31 31 32 31 32 32 32 33 33 34 34 35 35 36 37 37
31 30 31 31 31 30 31 31 31 31 30 30 30 31 31 31 31 30 30 30 30 30 31 31 31 31 31 31 31 32 32 32 32 33 33 33 34 34 35 36 36 37 36 37
30 30 30 30 30 30 30 31 31 31 31 31 31 32 32 32 32 31 31 31 31 31 31 32 32 32 32 32 32 32 33 32 32 33 33 34 34 35 36 36 36 36 36 37
29 30 30 30 30 30 30 30 30 30 30 31 31 32 32 33 33 32 32 32 32 31 31 31 32 32 32 32 32 32 32 32 33 33 33 34 34 34 35 35 35 35 35 36
28 29 30 30 30 29 29 29 30 30 30 30 30 30 31 32 32 32 32 32 31 31 31 31 31 32 32 32 32 32 32 32 33 32 33 33 33 33 33 33 33 34 34 35
29 29 29 29 30 31 31 30 30 29 29 29 30 30 30 31 32 32 31 31 31 31 31 31 31 31 31 31 32 32 31 31 31 31 32 32 32 31 32 32 32 33 34 35
Wind_Direction
261 258 258 257 260 263 262 261 260 264 266 270 272 275 274 271 271 274 275 274 273 272 271 269 264 261 262 261 260 260 262 264 267 267 270 273 274 276 278 277 277 279 281 283
264 260 257 257 258 261 264 265 263 264 264 265 267 269 272 272 271 273 274 275 273 270 268 267 264 260 260 262 262 260 261 263 267 267 270 274 275 277 279 278 278 279 281 282
265 266 262 263 264 264 264 265 266 266 267 265 263 263 267 271 273 274 274 275 272 271 269 269 265 262 262 263 263 263 264 266 267 267 271 274 277 279 280 280 280 280 281 282
264 265 264 268 264 264 265 266 265 265 267 269 266 263 265 269 271 274 274 271 272 274 271 269 267 264 265 267 267 267 267 266 267 270 272 275 277 279 278 279 280 280 281 283
260 261 266 266 267 267 268 267 266 267 268 269 266 264 265 268 269 270 273 272 273 274 273 271 270 266 266 267 270 268 268 268 268 273 275 276 277 278 277 278 280 280 282 284
260 261 264 266 267 267 268 267 269 267 268 269 264 263 266 269 270 270 271 273 271 271 271 271 270 269 268 269 271 271 271 269 271 274 277 279 280 279 279 281 282 283 285 287
261 262 264 266 267 267 266 267 268 267 267 266 262 263 267 269 270 272 271 271 272 270 270 270 270 270 270 271 270 272 271 271 273 276 278 279 280 280 280 282 284 286 286 288
262 260 262 265 265 265 266 266 266 265 264 265 263 263 265 268 269 270 271 271 271 272 272 270 270 269 270 270 270 271 272 274 275 276 278 279 281 281 282 282 284 286 287 289
260 262 264 264 264 264 265 264 263 262 263 263 262 262 263 264 266 267 268 270 272 273 276 274 271 269 268 270 273 274 274 276 277 277 279 280 281 283 284 285 285 286 287 288
258 259 261 263 263 263 264 263 261 261 261 261 262 261 261 263 263 266 268 268 270 272 275 277 273 271 272 272 273 275 275 275 276 278 279 280 282 282 284 286 286 287 287 287
258 260 260 260 261 261 261 263 261 259 259 260 261 261 262 262 262 264 267 268 270 272 272 275 275 273 271 273 274 275 275 276 277 278 279 280 281 283 284 286 287 288 288 288
258 260 260 260 260 261 261 260 259 257 256 258 260 261 261 262 264 266 267 268 270 271 271 271 273 273 272 273 274 275 276 278 279 279 281 282 283 283 284 286 288 288 289 289
259 259 260 260 260 261 261 260 258 256 256 257 257 259 260 262 264 266 268 271 271 271 272 271 270 271 272 273 274 275 276 279 280 281 282 284 285 285 285 287 288 289 289 290
259 259 260 260 261 261 260 259 257 253 253 255 257 258 260 262 266 267 269 272 274 273 272 272 273 273 272 273 275 276 278 280 280 282 282 284 286 286 286 288 289 289 290 292
257 258 258 259 259 259 259 259 257 255 253 254 256 257 260 262 266 268 270 271 273 274 273 273 275 274 273 275 277 279 280 281 282 283 283 285 287 287 287 287 288 289 291 292
256 257 257 258 259 259 258 258 258 257 256 256 256 256 258 261 265 269 270 272 272 272 273 274 275 274 275 277 278 279 280 281 282 283 285 286 287 287 287 287 289 290 291 293
257 257 257 256 257 257 256 256 256 257 256 257 258 257 259 261 264 267 270 272 272 272 274 275 275 276 277 278 280 281 281 282 283 284 285 286 287 288 288 289 290 291 292 293
258 257 257 255 255 256 255 254 253 252 254 259 260 258 259 261 263 266 269 272 273 273 275 275 276 278 279 280 282 283 284 284 285 285 287 288 288 289 291 292 291 291 293 294
257 258 257 256 256 255 255 254 253 254 256 259 260 259 260 261 263 266 269 271 273 275 275 276 278 279 280 281 282 284 285 286 286 287 288 289 289 290 291 292 292 292 293 294
259 258 256 255 255 255 255 255 256 256 257 260 260 260 260 261 263 266 269 271 273 275 276 277 278 278 279 281 281 283 285 286 286 287 288 288 289 290 291 293 294 294 295 296
257 256 256 255 254 255 255 254 256 258 259 260 261 260 260 261 264 267 269 270 272 274 276 277 278 279 280 281 282 284 285 285 286 287 288 288 289 290 291 293 294 295 296 297
256 255 255 254 254 254 254 254 256 259 259 260 262 262 261 262 264 266 269 270 271 273 275 277 279 280 280 281 282 283 284 284 285 287 288 289 289 290 292 294 295 296 297 297
255 254 254 254 254 255 257 258 259 259 260 262 262 261 261 262 264 266 269 270 272 273 274 277 279 280 281 282 282 283 284 285 286 287 288 289 289 291 292 293 295 296 297 298
253 253 254 254 255 256 257 258 259 259 260 261 262 262 262 263 264 267 269 270 272 273 275 277 279 280 281 282 283 284 285 286 286 287 288 289 290 291 293 294 295 296 297 298
253 252 253 254 256 256 255 256 258 260 261 262 263 262 263 264 265 266 268 270 272 273 275 277 278 279 281 283 284 285 286 286 287 288 288 288 290 291 293 294 296 297 298 298
254 253 253 254 255 255 255 257 259 260 262 263 264 264 264 265 266 267 268 270 271 273 274 276 278 280 281 283 284 286 287 287 287 287 287 288 289 291 293 295 296 298 299 300
256 255 254 253 254 256 257 259 260 260 261 262 262 264 266 266 266 267 268 270 271 273 274 275 278 280 281 283 284 286 288 289 290 289 289 290 292 294 295 296 296 298 299 301
Height
5824 5824 5825 5826 5826 5827 5827 5828 5829 5829 5829 5830 5829 5829 5829 5829 5829 5829 5829 5829 5830 5830 5830 5831 5831 5832 5833 5834 5835 5835 5836 5837 5837 5837 5838 5838 5838 5838 5838 5837 5837 5837 5836 5836
5820 5821 5821 5822 5823 5823 5824 5824 5825 5826 5826 5826 5826 5826 5825 5825 5826 5826 5826 5826 5826 5826 5827 5827 5828 5828 5829 5830 5831 5831 5832 5832 5833 5833 5833 5834 5834 5833 5833 5833 5832 5832 5832 5831
5816 5816 5816 5818 5820 5820 5820 5820 5821 5821 5823 5822 5822 5822 5822 5822 5822 5822 5822 5822 5822 5823 5823 5824 5824 5825 5825 5826 5826 5827 5828 5828 5828 5828 5829 5829 5829 5829 5828 5828 5828 5827 5827 5826
5810 5812 5811 5816 5816 5816 5816 5816 5817 5817 5818 5818 5818 5818 5818 5818 5818 5818 5819 5819 5819 5819 5820 5820 5820 5821 5821 5822 5822 5823 5823 5823 5824 5824 5824 5824 5824 5824 5823 5823 5823 5822 5822 5821
5805 5806 5807 5810 5811 5811 5811 5811 5812 5813 5813 5813 5814 5814 5814 5814 5814 5814 5814 5815 5815 5816 5816 5816 5816 5816 5817 5818 5818 5818 5818 5819 5819 5819 5819 5819 5819 5818 5818 5818 5817 5817 5816 5816
5800 5800 5801 5805 5806 5806 5807 5806 5808 5808 5808 5808 5809 5809 5810 5810 5810 5810 5810 5811 5811 5811 5811 5812 5812 5812 5813 5813 5813 5814 5814 5814 5814 5814 5814 5814 5814 5813 5813 5813 5812 5812 5811 5810
5793 5794 5795 5799 5800 5801 5802 5803 5803 5803 5803 5804 5804 5805 5805 5805 5806 5806 5806 5807 5807 5807 5807 5807 5807 5808 5808 5808 5809 5809 5809 5809 5809 5809 5809 5809 5808 5808 5808 5807 5807 5806 5805 5804
5788 5788 5791 5793 5793 5795 5795 5796 5797 5797 5797 5798 5799 5800 5800 5801 5801 5802 5802 5802 5802 5802 5802 5802 5802 5803 5803 5803 5803 5804 5804 5804 5804 5804 5804 5803 5803 5802 5802 5801 5801 5800 5799 5798
5782 5784 5785 5785 5786 5787 5788 5789 5790 5791 5791 5792 5793 5794 5795 5796 5796 5797 5797 5797 5797 5797 5797 5797 5797 5797 5798 5798 5798 5798 5798 5798 5798 5798 5798 5797 5797 5796 5795 5795 5794 5793 5792 5791
5774 5776 5777 5779 5780 5780 5781 5782 5783 5784 5785 5785 5787 5788 5789 5790 5790 5791 5791 5792 5792 5792 5792 5792 5792 5792 5792 5792 5792 5792 5792 5792 5792 5792 5791 5791 5790 5790 5789 5788 5787 5786 5785 5783
5767 5769 5770 5771 5772 5773 5774 5775 5776 5777 5778 5779 5780 5781 5782 5783 5784 5785 5786 5786 5786 5786 5786 5786 5786 5786 5786 5786 5786 5786 5785 5785 5785 5785 5784 5784 5783 5782 5781 5780 5779 5778 5776 5775
5759 5761 5762 5763 5765 5765 5766 5767 5768 5770 5771 5772 5773 5774 5775 5777 5777 5778 5779 5779 5779 5779 5779 5779 5779 5779 5779 5779 5779 5778 5778 5778 5778 5777 5777 5776 5775 5774 5773 5772 5771 5769 5767 5765
5750 5752 5753 5754 5756 5757 5758 5759 5761 5762 5764 5766 5767 5768 5768 5770 5770 5771 5772 5772 5772 5772 5772 5772 5772 5772 5772 5771 5771 5771 5771 5770 5770 5769 5768 5767 5766 5765 5764 5763 5761 5760 5758 5756
5742 5743 5744 5746 5747 5749 5750 5751 5753 5754 5756 5758 5759 5760 5761 5762 5763 5764 5765 5765 5765 5765 5764 5764 5764 5764 5764 5764 5764 5763 5763 5762 5761 5761 5760 5759 5757 5756 5755 5753 5752 5750 5748 5745
5733 5734 5736 5737 5738 5740 5741 5743 5745 5746 5748 5750 5751 5753 5754 5755 5756 5757 5757 5757 5757 5757 5757 5757 5757 5757 5756 5756 5756 5755 5754 5754 5753 5752 5751 5749 5748 5746 5745 5743 5742 5740 5738 5735
5724 5726 5727 5728 5730 5731 5732 5734 5736 5738 5740 5742 5743 5745 5746 5747 5748 5749 5750 5750 5750 5750 5750 5749 5749 5749 5748 5748 5747 5746 5746 5745 5744 5743 5741 5740 5738 5736 5735 5733 5731 5729 5727 5724
5715 5717 5718 5720 5721 5722 5724 5726 5728 5730 5732 5733 5735 5736 5738 5739 5740 5741 5742 5742 5742 5742 5742 5742 5741 5741 5740 5739 5738 5738 5737 5736 5734 5733 5732 5730 5728 5727 5725 5723 5721 5719 5716 5714
5706 5707 5709 5710 5712 5714 5715 5717 5719 5721 5723 5725 5726 5728 5729 5731 5732 5733 5734 5734 5734 5734 5733 5733 5733 5732 5731 5730 5729 5728 5727 5726 5725 5724 5722 5721 5719 5717 5714 5712 5710 5708 5706 5703
5696 5698 5700 5701 5703 5705 5707 5709 5711 5713 5715 5717 5718 5719 5721 5722 5724 5724 5725 5725 5725 5725 5725 5724 5724 5723 5722 5721 5720 5719 5718 5717 5716 5714 5713 5711 5709 5707 5704 5702 5699 5697 5695 5692
5687 5689 5690 5692 5694 5696 5698 5700 5702 5704 5706 5708 5709 5710 5712 5713 5715 5716 5716 5716 5716 5717 5716 5715 5715 5714 5713 5713 5712 5711 5709 5708 5706 5705 5703 5701 5699 5697 5695 5692 5689 5687 5684 5681
5677 5679 5681 5683 5685 5687 5689 5691 5693 5695 5697 5698 5700 5701 5703 5704 5706 5706 5707 5707 5708 5707 5707 5706 5706 5705 5704 5703 5702 5701 5700 5698 5697 5695 5693 5691 5689 5687 5685 5682 5680 5677 5674 5671
5668 5670 5671 5673 5675 5677 5679 5681 5683 5685 5687 5689 5690 5692 5693 5695 5696 5697 5697 5698 5698 5698 5698 5697 5697 5696 5695 5694 5693 5691 5690 5688 5687 5685 5683 5681 5679 5677 5675 5672 5669 5666 5663 5660
5658 5660 5662 5664 5666 5668 5670 5672 5674 5676 5677 5679 5680 5682 5683 5685 5686 5687 5688 5688 5688 5688 5688 5688 5687 5686 5685 5684 5683 5681 5680 5678 5677 5675 5673 5671 5669 5666 5664 5661 5658 5655 5652 5649
5650 5652 5653 5655 5657 5659 5661 5663 5664 5666 5667 5669 5670 5672 5673 5675 5676 5677 5678 5678 5679 5679 5679 5678 5677 5676 5675 5674 5673 5671 5670 5668 5666 5664 5662 5661 5658 5656 5653 5650 5648 5645 5642 5639
5640 5642 5644 5646 5647 5649 5651 5653 5655 5656 5658 5659 5660 5661 5663 5664 5666 5667 5668 5668 5668 5669 5668 5668 5667 5666 5665 5664 5663 5661 5660 5658 5656 5654 5652 5650 5648 5645 5643 5640 5637 5634 5631 5628
5631 5633 5635 5637 5639 5640 5642 5644 5645 5647 5648 5649 5650 5652 5653 5654 5655 5656 5657 5657 5658 5658 5658 5658 5657 5656 5655 5654 5653 5651 5649 5647 5645 5643 5641 5639 5637 5635 5632 5630 5627 5624 5621 5617
5623 5624 5626 5628 5630 5631 5633 5634 5636 5637 5638 5640 5641 5642 5643 5644 5645 5646 5647 5647 5648 5648 5648 5647 5647 5646 5645 5644 5643 5641 5640 5638 5635 5633 5631 5629 5627 5625 5622 5620 5617 5614 5611 5607